カタログに戻る

JD 3

運用中科学LEO
NORAD 14795·PAYLOAD·🇺🇸 United States

打ち上げ Feb 5, 1984 から Vandenberg Space Force Base

Loading…

次のパス (今後24時間)

TLE

最新Source: Space-Track

元期: Sep 14, 2026, 12:07 UTC

1 14795U 84012F   26257.50531479  .00005596  00000-0  51446-3 0  9995
2 14795  63.3024  70.1873 0710978 128.4180 238.2928 13.90588312367086

AllMySatでJD 3をリアルタイム追跡

Download on the App Store